CW9461 Weather Reports


Display with metric or nautical units.
time (UTC)temp
F
wind
direction
speed
MPH
gust
MPH
rain 1hr
in
rain 24hr
in
rain mn
in
humidity
%
barometer
mb
20260508135604 51 219 0.0 3.0 0.00 0.00 0.00 94 1008.8
20260508134604 51 160 1.0 2.0 0.00 0.00 0.00 93 1008.5
20260508133604 51 148 1.0 5.0 0.00 0.00 0.00 93 1008.5
20260508132604 50 159 1.0 3.0 0.00 0.00 0.00 93 1008.5
20260508131605 51 168 0.0 2.0 0.00 0.00 0.00 93 1008.5
20260508131104 51 143 1.0 3.0 0.00 0.00 0.00 93 1008.5
20260508130605 51 157 1.0 2.0 0.00 0.00 0.00 93 1008.5
20260508130104 51 179 2.0 5.0 0.00 0.00 0.00 93 1008.5
20260508125104 51 157 1.0 3.0 0.00 0.00 0.00 93 1008.3
20260508124605 51 135 1.0 3.0 0.00 0.00 0.00 93 1008.1
20260508124104 51 139 1.0 3.0 0.00 0.00 0.00 93 1008.1
20260508123605 51 135 0.0 2.0 0.00 0.00 0.00 93 1008.3
20260508123104 51 157 0.0 1.0 0.00 0.00 0.00 93 1008.5
20260508122604 51 157 0.0 3.0 0.00 0.00 0.00 92 1008.5
20260508121604 51 157 1.0 1.0 0.00 0.00 0.00 92 1008.5
20260508121103 51 157 1.0 2.0 0.00 0.00 0.00 92 1008.5
20260508120604 51 180 1.0 2.0 0.00 0.00 0.00 92 1008.5
20260508120105 50 142 2.0 3.0 0.00 0.00 0.00 91 1008.5
20260508115104 51 157 0.0 3.0 0.00 0.00 0.00 91 1008.5
20260508114604 51 157 0.0 0.0 0.00 0.00 0.00 91 1008.5
20260508113105 51 154 0.0 2.0 0.00 0.00 0.00 90 1008.5
20260508111605 52 180 1.0 2.0 0.00 0.00 0.00 90 1008.1
20260508111104 52 166 2.0 3.0 0.00 0.00 0.00 90 1008.1
20260508110605 52 139 2.0 3.0 0.00 0.00 0.00 90 1008.1
20260508110105 52 154 2.0 5.0 0.00 0.00 0.00 90 1008.1
20260508105605 52 138 2.0 6.0 0.00 0.00 0.00 89 1008.1
20260508105104 52 133 2.0 5.0 0.00 0.00 0.00 89 1008.1
20260508104606 52 157 1.0 5.0 0.00 0.00 0.00 89 1008.3
20260508104104 52 157 2.0 6.0 0.00 0.00 0.00 89 1008.3
20260508103605 52 136 2.0 3.0 0.00 0.00 0.00 89 1008.3
20260508103104 52 157 3.0 6.0 0.00 0.00 0.00 89 1008.1
20260508102604 52 155 3.0 8.0 0.00 0.00 0.00 89 1008.1
20260508102104 52 153 2.0 6.0 0.00 0.00 0.00 89 1008.1
20260508101604 52 161 2.0 6.0 0.00 0.00 0.00 89 1008.1
20260508101104 52 129 2.0 6.0 0.00 0.00 0.00 89 1008.1
20260508100105 52 155 3.0 8.0 0.00 0.00 0.00 89 1008.1
20260508095605 52 135 3.0 5.0 0.00 0.00 0.00 89 1008.1
20260508094604 52 143 3.0 7.0 0.00 0.00 0.00 89 1008.1
20260508094104 52 132 1.0 3.0 0.00 0.00 0.00 89 1008.1
20260508092605 53 153 2.0 5.0 0.00 0.00 0.00 88 1008.1
20260508092105 53 158 1.0 6.0 0.00 0.00 0.00 88 1008.1
20260508091603 53 135 2.0 6.0 0.00 0.00 0.00 88 1008.1
20260508091104 53 110 2.0 7.0 0.00 0.00 0.00 88 1008.1
20260508085604 53 130 3.0 7.0 0.00 0.00 0.00 88 1008.1
20260508084603 53 131 1.0 3.0 0.00 0.00 0.00 87 1008.1
20260508084104 53 147 2.0 7.0 0.00 0.00 0.00 87 1008.1
20260508083604 54 152 2.0 5.0 0.00 0.00 0.00 87 1008.1
20260508083104 54 140 2.0 7.0 0.00 0.00 0.00 87 1008.1
20260508082604 54 157 2.0 5.0 0.00 0.00 0.00 87 1008.1
20260508082104 54 194 2.0 3.0 0.00 0.00 0.00 87 1008.3
20260508081604 54 141 2.0 6.0 0.00 0.00 0.00 87 1008.3
20260508081104 54 157 2.0 6.0 0.00 0.00 0.00 87 1008.4
20260508080604 54 157 1.0 6.0 0.00 0.00 0.00 87 1008.5
20260508080104 55 170 2.0 6.0 0.00 0.00 0.00 87 1008.5
20260508075604 55 161 2.0 5.0 0.00 0.00 0.00 87 1008.1
20260508075104 55 155 1.0 6.0 0.00 0.00 0.00 88 1008.1
20260508074603 55 152 2.0 6.0 0.00 0.00 0.00 88 1008.1
20260508074105 55 157 1.0 3.0 0.00 0.00 0.00 88 1008.3
20260508073604 55 157 1.0 3.0 0.00 0.00 0.00 88 1008.1
20260508073103 55 138 2.0 5.0 0.00 0.00 0.00 89 1008.3
20260508072604 55 271 1.0 5.0 0.00 0.00 0.00 89 1008.1
20260508072104 55 177 1.0 3.0 0.00 0.00 0.00 89 1008.1
20260508071604 55 210 2.0 6.0 0.00 0.00 0.00 89 1008.3
20260508071105 55 183 2.0 6.0 0.00 0.00 0.00 90 1008.3
20260508070604 55 124 2.0 6.0 0.00 0.00 0.00 90 1008.1
20260508070104 55 223 2.0 6.0 0.00 0.00 0.00 90 1008.1
20260508065604 55 167 1.0 3.0 0.00 0.00 0.00 90 1008.3
20260508065104 55 178 0.0 2.0 0.00 0.00 0.00 90 1008.1
20260508064604 55 187 1.0 3.0 0.00 0.00 0.00 90 1008.1
20260508064104 54 184 0.0 2.0 0.00 0.00 0.00 90 1008.1
20260508063605 54 180 0.0 2.0 0.00 0.00 0.00 90 1008.1
20260508063103 55 171 1.0 3.0 0.00 0.00 0.00 90 1008.1
20260508062603 55 180 1.0 3.0 0.00 0.00 0.00 90 1008.1
20260508062104 55 166 2.0 3.0 0.00 0.00 0.00 90 1008.1
20260508061606 54 135 1.0 3.0 0.00 0.00 0.00 90 1008.1
20260508061106 54 209 0.0 1.0 0.00 0.00 0.00 90 1008.1
20260508060606 55 179 1.0 2.0 0.00 0.00 0.00 89 1007.8
20260508060106 55 176 1.0 2.0 0.00 0.00 0.00 89 1008.0
20260508055605 55 157 0.0 0.0 0.00 0.00 0.00 89 1007.8
20260508055107 55 217 0.0 1.0 0.00 0.00 0.00 89 1007.8
20260508054605 55 154 0.0 0.0 0.00 0.00 0.00 88 1007.8
20260508054107 55 112 0.0 1.0 0.00 0.00 0.00 88 1007.8
20260508053605 55 157 0.0 1.0 0.00 0.00 0.00 88 1008.0
20260508053106 55 157 0.0 2.0 0.00 0.00 0.00 88 1007.8
20260508052605 55 112 0.0 0.0 0.00 0.00 0.00 88 1007.8
20260508052107 55 119 1.0 5.0 0.00 0.00 0.00 88 1007.8
20260508051605 55 158 1.0 3.0 0.00 0.00 0.00 88 1007.8
20260508051107 55 127 1.0 2.0 0.00 0.00 0.00 87 1007.8
20260508050605 55 190 1.0 2.0 0.00 0.00 0.00 87 1007.8
20260508045605 55 157 0.0 1.0 0.00 0.00 0.00 86 1007.8
20260508045105 56 157 0.0 1.0 0.00 0.00 0.00 86 1007.8
20260508044606 56 135 0.0 1.0 0.00 0.00 0.00 85 1007.8
20260508043606 57 180 0.0 1.0 0.00 0.00 0.00 85 1007.6
20260508042606 57 292 0.0 1.0 0.00 0.00 0.00 84 1007.6
20260508042105 58 292 0.0 1.0 0.00 0.00 0.00 84 1007.6
20260508041606 58 292 1.0 2.0 0.00 0.00 0.00 84 1007.5
20260508041105 58 243 2.0 6.0 0.00 0.00 0.00 84 1007.5
20260508040606 58 260 3.0 6.0 0.00 0.00 0.00 83 1007.3
20260508040107 59 250 2.0 7.0 0.00 0.00 0.00 83 1007.3
20260508035605 59 256 3.0 8.0 0.00 0.00 0.00 83 1007.1
20260508035105 59 230 2.0 6.0 0.00 0.00 0.00 84 1007.1
20260508034606 59 240 2.0 6.0 0.00 0.00 0.00 84 1007.1
20260508034107 59 260 2.0 6.0 0.00 0.00 0.00 84 1006.8
20260508033606 59 248 3.0 6.0 0.00 0.00 0.00 83 1007.0
20260508033105 60 249 2.0 3.0 0.00 0.00 0.00 83 1006.8
20260508032606 60 288 1.0 2.0 0.00 0.00 0.00 82 1006.8
20260508032106 60 283 2.0 2.0 0.00 0.00 0.00 82 1006.8
20260508031606 60 271 1.0 3.0 0.00 0.00 0.00 81 1006.6
20260508030605 61 266 1.0 5.0 0.00 0.00 0.00 80 1006.8
20260508025605 62 264 3.0 6.0 0.00 0.00 0.00 79 1006.4
20260508025105 62 258 3.0 7.0 0.00 0.00 0.00 78 1006.4
20260508024605 63 256 3.0 7.0 0.00 0.00 0.00 77 1006.4
20260508024107 63 277 3.0 7.0 0.00 0.00 0.00 77 1006.4
20260508022606 64 244 5.0 10.0 0.00 0.00 0.00 75 1006.1
20260508022105 64 237 6.0 10.0 0.00 0.00 0.00 74 1006.4
20260508021605 65 225 5.0 9.0 0.00 0.00 0.00 73 1006.4
20260508021105 65 274 3.0 10.0 0.00 0.00 0.00 72 1006.4
20260508015106 67 277 4.0 7.0 0.00 0.00 0.00 68 1006.4
20260508014605 67 250 3.0 8.0 0.00 0.00 0.00 67 1006.4
20260508014106 68 278 3.0 8.0 0.00 0.00 0.00 66 1006.1
20260508012607 70 243 5.0 13.0 0.00 0.00 0.00 64 1006.1
20260508012105 70 250 3.0 8.0 0.00 0.00 0.00 64 1006.1
20260508011605 70 278 4.0 10.0 0.00 0.00 0.00 64 1006.1
20260508010606 71 234 5.0 10.0 0.00 0.00 0.00 63 1006.1
20260508010106 71 277 4.0 8.0 0.00 0.00 0.00 63 1006.2
20260508005606 71 249 4.0 14.0 0.00 0.00 0.00 63 1006.1
20260508005106 71 250 4.0 7.0 0.00 0.00 0.00 64 1006.1
20260508004106 71 286 5.0 7.0 0.00 0.00 0.00 64 1006.2
20260508003605 70 276 3.0 7.0 0.00 0.00 0.00 64 1006.2
20260508002604 71 276 5.0 9.0 0.00 0.00 0.00 63 1006.1
20260508002106 71 245 5.0 12.0 0.00 0.00 0.00 63 1006.1
20260508000605 71 273 5.0 10.0 0.00 0.00 0.00 63 1006.1
20260508000105 72 273 6.0 9.0 0.00 0.00 0.00 63 1006.1
20260507235605 72 252 6.0 9.0 0.00 0.00 0.00 62 1006.1
20260507234605 73 276 6.0 13.0 0.00 0.00 0.00 61 1006.1
20260507233605 74 254 5.0 12.0 0.00 0.00 0.00 59 1006.1
20260507233104 74 275 5.0 9.0 0.00 0.00 0.00 58 1006.1
20260507232105 75 280 5.0 10.0 0.00 0.00 0.00 57 1006.1
20260507231104 75 233 5.0 8.0 0.00 0.00 0.00 56 1006.1
20260507230605 75 271 3.0 8.0 0.00 0.00 0.00 57 1006.1
20260507230106 75 274 5.0 12.0 0.00 0.00 0.00 56 1006.1
20260507225605 75 252 5.0 8.0 0.00 0.00 0.00 56 1006.2
20260507225105 75 276 4.0 12.0 0.00 0.00 0.00 57 1006.1
20260507224605 75 271 4.0 8.0 0.00 0.00 0.00 57 1006.1
20260507223604 74 255 5.0 10.0 0.00 0.00 0.00 56 1006.4
20260507222605 74 264 3.0 8.0 0.00 0.00 0.00 56 1006.6
20260507222105 74 260 4.0 9.0 0.00 0.00 0.00 57 1006.8
20260507221605 74 276 4.0 7.0 0.00 0.00 0.00 57 1006.8
20260507221105 74 261 3.0 9.0 0.00 0.00 0.00 57 1007.0
20260507220605 73 279 4.0 9.0 0.00 0.00 0.00 57 1006.9
20260507220105 73 284 5.0 9.0 0.00 0.00 0.00 58 1007.1
20260507215606 73 265 4.0 8.0 0.00 0.00 0.00 58 1007.1
20260507215104 73 281 3.0 8.0 0.00 0.00 0.00 58 1007.1
20260507213605 72 269 4.0 9.0 0.00 0.00 0.00 59 1007.5
20260507213105 73 257 5.0 10.0 0.00 0.00 0.00 60 1007.6
20260507212606 73 278 3.0 6.0 0.00 0.00 0.00 60 1007.8
20260507212104 72 285 3.0 9.0 0.00 0.00 0.00 61 1007.8
20260507211105 72 260 3.0 10.0 0.00 0.00 0.00 60 1007.8
20260507210605 71 255 4.0 8.0 0.00 0.00 0.00 61 1007.8
20260507210105 71 260 3.0 8.0 0.00 0.00 0.00 61 1007.8
20260507205106 71 228 5.0 12.0 0.00 0.00 0.00 62 1008.1
20260507204605 70 240 5.0 9.0 0.00 0.00 0.00 63 1008.1
20260507204104 70 286 3.0 7.0 0.00 0.00 0.00 63 1008.1
20260507203105 70 269 3.0 8.0 0.00 0.00 0.00 64 1008.1
20260507202604 70 248 3.0 7.0 0.00 0.00 0.00 64 1008.2
20260507202105 70 274 3.0 8.0 0.00 0.00 0.00 65 1008.5
20260507201604 69 278 3.0 8.0 0.00 0.00 0.00 66 1008.5
20260507201106 69 266 3.0 9.0 0.00 0.00 0.00 66 1008.5
20260507200605 68 232 3.0 8.0 0.00 0.00 0.00 67 1008.5
20260507195605 68 263 4.0 10.0 0.00 0.00 0.00 67 1008.6
20260507194606 68 246 4.0 10.0 0.00 0.00 0.00 67 1008.8
20260507194105 68 254 4.0 10.0 0.00 0.00 0.00 68 1008.8
20260507193606 67 278 3.0 10.0 0.00 0.00 0.00 69 1008.8
20260507193104 67 257 3.0 8.0 0.00 0.00 0.00 70 1008.9
20260507192105 66 268 3.0 9.0 0.00 0.00 0.00 70 1009.1
20260507191605 66 253 5.0 12.0 0.00 0.00 0.00 71 1009.1
20260507191104 65 261 3.0 10.0 0.00 0.00 0.00 71 1009.1
20260507190605 65 263 4.0 8.0 0.00 0.00 0.00 71 1009.1
20260507185604 65 265 3.0 8.0 0.00 0.00 0.00 72 1009.5
20260507185105 65 250 5.0 13.0 0.00 0.00 0.00 72 1009.5
20260507184605 65 262 5.0 12.0 0.00 0.00 0.00 72 1009.5
20260507184105 64 277 4.0 8.0 0.00 0.00 0.00 73 1009.5
20260507183605 64 238 4.0 9.0 0.00 0.00 0.00 73 1009.5
20260507183105 64 255 3.0 8.0 0.00 0.00 0.00 74 1009.5
20260507181605 63 235 4.0 8.0 0.00 0.00 0.00 76 1009.5
20260507181106 62 281 4.0 10.0 0.00 0.00 0.00 76 1009.5
20260507180605 63 241 5.0 8.0 0.00 0.00 0.00 75 1009.6
20260507180105 62 266 3.0 8.0 0.00 0.00 0.00 76 1009.8
20260507175606 62 264 4.0 7.0 0.00 0.00 0.00 76 1009.8
20260507175105 62 268 5.0 8.0 0.00 0.00 0.00 77 1009.8
20260507174605 62 288 4.0 7.0 0.00 0.00 0.00 76 1009.8
20260507173604 62 262 4.0 7.0 0.00 0.00 0.00 76 1009.8
20260507172606 61 230 4.0 9.0 0.00 0.00 0.00 76 1009.8
20260507172105 62 248 3.0 8.0 0.00 0.00 0.00 76 1009.8
20260507171604 62 252 3.0 8.0 0.00 0.00 0.00 76 1009.7
20260507170606 62 270 3.0 6.0 0.00 0.00 0.00 75 1009.8
20260507170105 62 253 3.0 6.0 0.00 0.00 0.00 75 1009.8
20260507165604 62 273 3.0 6.0 0.00 0.00 0.00 75 1009.8
20260507165105 62 267 3.0 6.0 0.00 0.00 0.00 74 1009.8
20260507164605 62 233 1.0 7.0 0.00 0.00 0.00 75 1009.6
20260507164104 62 229 2.0 6.0 0.00 0.00 0.00 77 1009.7
20260507163604 61 157 0.0 6.0 0.00 0.00 0.00 77 1009.8
20260507163106 61 225 3.0 7.0 0.00 0.00 0.00 77 1009.8
20260507161605 60 192 3.0 5.0 0.00 0.00 0.00 78 1009.8
20260507161104 60 147 2.0 5.0 0.00 0.00 0.00 79 1009.8
20260507155605 59 172 1.0 3.0 0.00 0.00 0.00 82 1009.8
20260507155104 58 128 2.0 6.0 0.00 0.00 0.00 83 1010.2
20260507154604 58 226 2.0 3.0 0.00 0.00 0.00 84 1010.1
20260507154104 57 193 1.0 2.0 0.00 0.00 0.00 85 1009.9
20260507153604 57 220 1.0 3.0 0.00 0.00 0.00 85 1010.2
20260507153105 57 160 1.0 7.0 0.00 0.00 0.00 85 1010.0
20260507152605 56 228 1.0 3.0 0.00 0.00 0.00 85 1009.8
20260507152105 56 195 1.0 5.0 0.00 0.00 0.00 85 1010.2
20260507151104 56 157 1.0 8.0 0.00 0.00 0.00 86 1010.1
20260507145605 56 202 0.0 1.0 0.00 0.00 0.00 88 1010.2
20260507144604 55 225 1.0 3.0 0.00 0.00 0.00 88 1010.2
20260507144104 55 192 1.0 3.0 0.00 0.00 0.00 88 1010.2
20260507143605 55 193 0.0 3.0 0.00 0.00 0.00 89 1009.9
20260507142606 55 147 2.0 5.0 0.00 0.00 0.00 89 1009.8
20260507142105 55 196 1.0 5.0 0.00 0.00 0.00 89 1009.8
20260507141604 55 157 1.0 3.0 0.00 0.00 0.00 89 1009.8
20260507141104 54 180 1.0 3.0 0.00 0.00 0.00 89 1009.8
20260507140605 54 151 2.0 3.0 0.00 0.00 0.00 89 1009.7
20260507140106 54 157 1.0 6.0 0.00 0.00 0.00 89 1009.5